Wind_Speed
37 37 35 33 32 31 29 28 27 26 27 29 31 32 30 28 26 25 24 24 26 30 32 29 26 24 24 21 21 22 20 20 20 24 29 27 25 25 26 26 22 17 18 21 18 12 11 12 13 17 17 11 9 9 6 5 5 1 3 2 3 4 3 3 4 3 2 2 5 8 5 2 3 4 2 2 4 5 3 4 6 6 5 5 7 9 10 14
39 38 38 36 34 32 31 30 28 27 27 27 30 32 31 29 27 26 25 23 25 30 32 30 27 24 23 20 21 22 19 20 20 26 30 25 25 27 27 27 26 20 16 20 22 18 16 14 11 14 19 13 7 8 8 5 6 1 2 3 4 2 1 2 5 6 4 3 4 8 6 3 3 3 1 1 5 8 6 6 9 8 8 8 10 12 11 13
38 39 40 39 37 35 33 32 30 28 27 27 29 31 32 30 28 27 25 24 25 29 32 31 29 25 23 21 21 22 20 17 20 29 30 26 27 27 28 28 27 22 16 19 21 18 18 17 12 13 18 14 10 10 6 5 6 1 3 3 2 4 4 4 7 7 5 4 5 6 4 1 3 2 0 2 4 6 8 9 12 13 13 11 13 16 13 13
37 38 39 40 41 39 36 35 32 30 28 27 28 30 32 31 29 28 26 25 25 28 30 31 31 28 25 22 22 22 18 12 23 35 30 27 29 26 29 27 25 24 18 18 19 16 17 17 14 14 16 11 10 13 9 9 7 1 1 3 1 6 5 5 6 6 5 6 5 3 2 1 3 3 3 3 5 5 6 4 7 13 18 17 16 18 16 14
35 36 37 39 41 41 40 38 35 33 30 29 28 29 31 31 30 29 27 26 25 27 29 31 32 31 26 22 23 21 16 5 16 32 31 28 29 28 29 26 23 24 20 17 17 17 19 18 16 15 13 9 11 11 11 15 11 4 2 6 4 2 3 5 7 5 4 5 4 3 4 4 5 6 6 6 5 3 2 3 3 2 12 18 16 19 19 17
34 34 36 37 39 41 41 40 37 34 33 30 28 29 31 31 31 29 27 27 26 27 29 31 32 33 29 24 25 22 21 7 7 16 32 30 30 30 30 27 24 24 22 19 16 16 18 20 17 14 12 8 11 9 9 17 15 6 4 6 7 6 2 6 5 5 4 4 4 4 5 5 6 7 7 9 10 7 5 5 5 5 4 13 14 17 19 18
34 34 35 36 38 39 41 41 39 36 34 32 29 29 30 31 31 29 28 27 27 27 28 31 32 33 31 26 28 26 28 18 8 2 26 31 30 32 31 28 26 24 25 22 17 15 18 21 19 17 12 7 11 10 9 15 15 7 4 7 5 4 2 4 3 3 2 3 2 3 5 6 6 5 4 6 10 10 10 12 12 9 4 12 13 16 18 18
35 34 34 35 37 38 39 41 41 38 35 33 31 30 30 30 31 30 28 27 28 27 27 30 30 33 32 30 29 25 32 32 6 4 15 29 31 32 32 29 26 23 26 26 19 16 18 20 20 17 10 7 11 13 12 11 8 7 5 9 8 3 2 2 0 1 2 2 2 4 6 9 8 5 5 9 14 13 13 13 14 9 8 14 14 16 18 18
36 35 35 35 36 38 39 40 41 39 36 34 33 31 30 29 31 31 29 29 29 26 26 29 30 33 32 34 31 21 33 41 19 4 7 25 32 33 34 31 28 26 28 28 21 18 17 18 20 15 8 7 7 10 17 9 3 9 7 7 9 6 4 2 3 4 4 4 5 5 7 10 7 5 7 11 14 14 14 14 13 9 11 16 15 16 19 19
36 36 36 36 37 38 39 40 41 41 37 35 34 32 31 30 29 31 30 31 30 26 25 28 31 33 32 35 27 15 32 39 26 12 10 22 33 34 35 32 31 29 29 29 24 21 19 16 19 15 8 8 4 4 16 9 4 12 8 4 5 4 4 5 6 7 6 8 8 7 7 10 8 4 4 5 4 7 12 13 11 8 13 17 16 17 17 18
37 37 37 38 37 38 39 40 41 42 39 35 35 34 33 32 29 29 31 31 32 29 25 27 31 33 35 37 27 16 28 32 26 21 15 21 33 35 36 35 32 31 30 29 25 23 21 16 17 16 6 7 7 5 10 7 7 12 9 3 4 7 8 9 9 10 9 6 5 5 8 12 10 6 7 9 6 8 11 10 10 9 14 16 16 18 17 18
38 38 38 39 39 39 39 41 42 43 40 35 36 35 33 34 31 29 31 30 31 33 28 27 30 35 37 36 38 29 23 27 28 25 20 23 33 34 34 34 33 34 33 30 24 21 21 17 17 17 6 7 10 6 7 11 9 9 9 3 5 6 9 13 13 11 8 4 1 4 7 10 9 9 16 21 18 16 14 10 11 11 14 16 16 18 19 18
38 38 39 39 40 40 41 42 43 43 41 37 36 37 34 35 33 29 31 30 29 31 31 29 29 36 35 30 40 36 21 24 30 29 24 22 30 33 32 33 34 33 31 29 23 20 22 19 17 16 9 7 7 4 7 13 10 7 7 4 3 4 7 12 15 14 8 5 4 1 4 7 6 9 17 23 22 17 14 11 13 13 14 17 17 19 20 19
37 37 38 39 39 41 42 42 44 44 43 39 37 38 35 35 35 31 30 30 29 28 28 27 27 34 35 30 38 37 25 22 26 31 29 25 30 33 31 31 33 31 28 26 21 20 22 18 16 14 9 7 5 6 7 8 8 5 3 2 4 4 4 8 14 16 9 5 7 5 5 8 6 6 3 9 14 12 11 11 14 15 15 17 18 20 20 20
37 37 37 38 39 41 42 43 44 45 45 41 39 38 37 36 36 33 31 30 29 28 26 21 25 30 25 22 31 35 30 24 24 31 33 30 32 34 32 30 31 31 28 26 20 20 22 17 15 12 8 8 8 6 4 3 5 4 3 2 4 5 3 4 9 13 9 5 10 9 5 5 8 6 3 6 9 8 9 10 13 15 16 17 19 20 20 20
37 37 38 38 39 41 41 43 45 47 47 43 41 40 38 36 36 35 32 31 30 30 27 19 25 30 14 10 24 32 33 30 27 30 33 32 33 36 35 30 30 31 28 24 21 22 24 19 12 9 8 8 8 5 3 3 3 4 5 2 4 6 4 3 3 9 10 5 9 11 5 2 4 8 8 6 6 6 7 8 11 15 17 17 19 20 20 19
38 38 38 38 39 41 41 43 45 48 48 45 42 40 39 37 36 35 32 32 30 29 31 25 27 28 14 10 20 32 37 34 30 30 31 33 33 35 36 31 29 31 27 22 22 22 22 19 11 6 5 5 5 5 5 6 4 4 4 3 3 6 6 4 0 3 8 5 6 9 8 6 5 7 8 6 5 7 9 9 9 12 17 19 18 19 20 20
38 38 39 38 38 41 41 42 45 48 47 45 42 40 39 36 34 35 32 32 31 26 27 29 28 18 12 16 18 30 43 38 34 33 32 34 32 33 36 32 30 30 25 19 19 21 17 13 9 5 4 5 7 8 6 6 6 5 5 3 4 5 7 6 2 2 6 5 6 7 8 10 9 11 15 14 11 11 12 12 11 11 14 17 18 19 19 21
39 39 40 40 39 41 42 42 45 47 46 44 42 39 35 34 34 35 36 34 31 20 11 22 29 8 2 16 20 27 44 42 36 34 34 35 31 32 34 32 34 33 24 14 14 20 16 7 6 7 7 9 9 9 6 5 8 8 7 6 5 5 6 7 4 5 8 5 6 8 9 10 9 9 13 18 19 18 18 17 16 15 14 15 18 20 20 21
39 39 40 40 40 42 43 43 45 47 46 43 44 39 33 32 25 25 36 38 37 29 11 19 36 17 8 6 19 23 37 42 37 35 36 37 36 34 32 31 33 29 20 12 11 19 18 7 7 11 10 11 11 11 8 5 6 6 5 6 6 5 7 7 6 6 8 5 5 8 9 10 10 8 10 18 20 19 20 20 20 20 19 19 18 20 22 23
39 40 41 40 40 43 43 44 47 48 47 44 47 42 36 36 19 16 33 33 37 41 20 14 34 32 8 6 16 24 33 37 37 39 38 39 40 31 26 26 20 15 15 16 13 16 16 9 11 13 9 11 13 11 10 8 7 5 3 4 6 6 7 5 6 6 7 4 4 7 9 11 12 10 12 18 17 15 18 20 21 22 22 22 21 22 23 22
40 40 41 42 41 43 43 45 47 48 48 46 50 45 42 48 32 21 32 24 29 45 30 14 22 28 20 9 14 22 27 27 30 38 42 42 39 28 23 20 12 10 14 16 11 10 11 11 14 14 11 11 12 11 11 11 9 5 3 3 5 6 6 2 8 7 6 3 4 6 8 11 11 11 12 16 16 18 23 22 22 23 23 24 25 25 25 23
40 40 42 44 45 46 45 47 46 47 49 47 51 49 44 50 39 26 29 18 21 41 37 25 21 22 21 13 12 13 14 21 26 35 45 43 36 32 26 17 12 13 14 12 11 10 11 12 15 17 14 13 12 13 12 10 9 5 4 4 5 5 5 2 5 6 5 3 5 6 7 8 10 11 11 16 22 23 27 26 24 25 25 27 28 27 27 26
39 40 42 44 45 47 46 48 47 47 50 49 51 51 43 45 39 29 23 10 6 22 29 30 25 24 25 16 13 9 8 17 28 37 46 43 35 31 25 19 16 14 14 16 15 14 10 9 17 18 15 15 14 15 14 9 7 6 6 6 5 5 6 3 4 4 4 4 6 6 7 7 9 12 10 14 22 22 25 27 26 27 27 27 27 27 28 28
38 38 40 41 43 46 47 48 50 48 48 48 50 50 44 41 39 31 20 5 3 9 17 25 23 26 30 20 15 13 10 12 25 41 47 46 42 29 20 22 18 12 17 20 17 14 9 12 22 18 14 17 14 13 15 11 6 6 7 7 7 6 7 5 6 4 1 3 5 3 3 4 4 8 8 7 11 15 20 22 24 27 27 27 28 27 28 28
38 38 40 43 43 46 48 47 51 50 45 46 50 51 45 40 37 29 16 2 1 6 9 17 18 22 31 26 20 16 10 12 21 42 46 44 47 34 18 18 14 12 19 18 11 7 6 14 20 16 15 18 14 11 15 13 7 5 7 8 9 8 6 4 2 3 1 2 2 3 3 4 4 6 7 5 5 9 14 15 21 28 28 29 31 31 30 29
39 40 41 43 43 46 45 42 46 48 43 44 49 47 40 37 36 28 13 1 3 8 9 14 15 15 27 34 27 12 3 6 16 36 46 42 42 33 18 13 11 13 16 12 7 5 9 17 17 16 16 14 12 10 12 14 8 3 8 12 11 8 5 5 3 2 1 2 1 3 4 5 7 7 6 8 9 9 10 10 16 26 30 31 32 33 33 33
41 41 42 42 42 45 42 39 45 47 42 42 46 45 37 36 38 27 10 3 4 9 9 12 12 14 22 31 32 18 10 10 10 27 49 46 36 26 15 15 14 14 17 13 10 9 14 19 18 19 16 11 11 9 10 13 7 2 7 9 9 7 5 4 3 2 2 3 3 5 4 4 7 4 5 8 9 9 10 10 11 20 31 33 31 32 34 35
42 42 42 42 40 38 33 36 47 47 42 41 42 40 37 38 33 16 4 4 4 5 7 15 14 14 18 18 23 23 20 15 5 22 46 42 33 21 11 19 19 14 18 16 10 8 11 20 22 18 12 9 10 7 10 12 6 4 6 6 4 3 1 1 1 1 4 2 6 4 4 4 6 4 4 6 6 7 8 8 9 15 26 32 32 33 34 36
42 39 40 43 36 28 26 32 42 43 41 41 40 39 41 36 20 6 6 5 3 4 10 16 15 16 20 14 12 17 17 17 9 19 31 28 28 19 11 22 19 10 13 12 6 3 8 19 20 13 10 12 10 7 9 10 8 8 7 6 5 3 3 4 3 4 2 5 6 6 7 5 5 3 5 6 6 8 8 6 7 11 18 26 31 33 34 35
37 34 37 37 28 24 28 31 33 35 39 41 41 41 37 21 6 5 7 1 3 7 10 12 14 17 21 15 10 12 14 14 10 16 16 12 16 14 9 14 9 5 10 7 3 2 7 13 10 8 14 17 13 7 6 8 10 9 5 5 4 2 4 3 2 3 2 5 1 5 9 7 7 5 2 3 4 6 8 7 7 9 14 21 27 31 33 34
35 35 33 29 23 23 28 31 29 30 36 41 43 39 23 5 3 5 3 1 2 6 8 9 12 13 18 17 12 13 13 11 12 16 12 8 9 9 10 11 8 7 8 8 6 3 6 9 8 6 10 16 15 8 4 6 8 7 5 7 6 2 1 1 2 2 4 4 1 1 4 6 9 7 6 9 8 6 7 9 9 10 14 18 19 23 30 33
38 37 30 25 22 21 25 30 28 27 32 41 40 27 9 2 5 4 2 3 1 3 8 12 12 12 17 16 12 13 13 10 12 16 14 11 9 11 13 14 16 11 6 12 11 6 6 8 12 9 4 11 15 10 8 8 10 11 9 9 8 5 4 4 3 2 4 4 4 2 3 3 6 4 10 14 15 16 15 15 14 13 15 17 14 14 19 26
35 34 29 22 18 21 26 27 26 29 35 37 27 12 4 4 2 2 3 3 0 3 8 12 14 14 15 14 11 12 12 10 11 14 15 13 9 12 12 13 18 10 6 12 10 10 10 7 13 13 8 15 16 13 13 10 10 12 8 7 7 5 5 5 4 5 4 1 3 4 3 3 3 2 6 8 9 14 17 18 18 16 19 20 19 18 18 19
31 30 27 21 18 22 27 26 26 32 36 29 14 4 6 5 1 2 3 2 2 4 7 11 16 14 10 10 11 13 10 7 11 12 14 13 10 12 12 12 16 9 8 10 6 8 9 3 9 9 8 18 17 11 12 10 7 6 4 6 6 4 4 3 2 4 4 2 1 4 3 4 2 6 9 5 5 8 12 14 15 18 21 21 21 24 25 23
29 28 25 20 20 23 26 27 28 32 31 19 7 3 5 2 1 3 4 3 3 5 9 11 12 10 8 7 8 13 9 3 9 10 10 14 12 14 13 10 16 15 13 12 5 7 9 4 9 9 7 18 19 13 13 11 8 3 4 7 3 1 3 1 1 1 2 3 3 4 4 5 4 9 10 10 11 9 9 11 13 18 21 20 21 25 26 24
27 25 21 19 20 22 25 28 30 31 24 11 4 5 4 1 1 2 3 5 4 5 9 9 7 6 8 6 6 14 11 3 8 8 7 12 11 13 15 10 15 17 14 12 5 5 8 3 3 7 8 14 16 15 14 11 9 6 6 8 4 4 2 1 2 0 2 5 3 5 8 5 3 6 6 8 12 10 7 9 12 16 17 18 21 23 23 20
26 23 19 16 18 22 26 30 32 29 17 5 4 5 2 2 3 3 3 5 5 3 4 5 3 3 7 9 7 13 13 6 8 7 5 8 7 12 16 10 12 17 16 14 7 4 8 5 3 2 4 5 7 8 7 3 3 5 6 8 6 1 2 4 4 3 5 6 4 5 8 6 7 5 2 3 8 8 8 9 9 10 13 17 19 16 13 12
23 21 14 13 19 21 24 31 32 22 9 4 5 4 2 3 4 6 5 5 4 2 3 2 1 0 4 8 9 12 14 9 8 7 5 5 4 11 18 11 11 18 19 15 8 5 8 5 1 2 2 4 5 3 6 3 1 2 5 7 5 3 3 6 5 2 4 5 5 4 4 5 6 7 6 8 10 8 7 8 7 10 14 15 13 8 6 6
20 14 8 14 22 21 21 25 23 11 2 4 5 2 2 3 4 7 8 6 3 2 2 2 1 1 2 5 8 10 10 9 9 6 5 7 5 8 17 14 10 16 20 15 9 7 5 4 5 0 3 3 5 5 9 11 7 6 8 9 7 3 1 2 3 2 2 2 3 4 4 5 4 6 11 14 12 8 7 6 5 10 13 10 7 5 2 2
16 9 7 17 22 24 25 19 12 6 1 3 3 1 2 4 5 6 7 8 6 5 4 3 2 3 2 4 6 7 6 7 8 6 3 7 8 5 15 21 14 15 18 13 9 9 4 4 7 4 2 6 7 5 5 10 13 10 9 10 10 6 3 2 5 5 3 3 3 3 5 6 4 4 8 11 9 6 7 6 5 7 8 6 4 2 1 2
10 6 10 19 22 27 25 11 5 5 2 3 3 3 4 4 5 6 6 8 6 4 5 4 2 2 3 3 3 4 6 4 6 7 4 7 10 5 14 27 24 19 18 10 8 9 5 5 7 5 3 3 2 1 3 3 11 9 6 8 9 7 6 7 8 6 5 5 3 1 5 6 3 3 5 6 6 6 8 7 5 5 7 6 2 1 2 3
10 10 13 19 23 27 19 5 4 5 3 4 3 5 7 4 4 6 6 4 4 3 3 2 1 1 3 3 3 3 4 3 4 7 4 6 10 6 9 26 28 20 15 9 7 7 5 5 6 4 3 2 2 1 4 4 3 5 4 6 9 10 10 7 4 4 4 5 4 2 6 7 3 0 2 6 8 9 7 6 5 6 7 5 2 2 3 3
16 15 14 17 23 23 11 3 5 5 3 4 3 4 5 4 4 7 6 4 4 3 2 2 1 1 1 2 3 5 5 3 3 6 4 2 6 6 8 23 27 18 14 11 10 9 5 5 8 6 3 1 2 2 1 2 3 7 9 10 11 13 12 6 2 3 3 7 9 7 7 6 3 4 4 4 5 6 6 7 6 5 6 4 2 2 3 3
16 12 9 13 20 17 6 2 2 4 4 4 3 3 3 2 5 9 8 6 6 4 3 3 2 3 2 1 1 4 6 5 1 3 4 2 2 2 7 18 23 18 17 18 17 14 8 7 10 11 11 10 9 10 9 8 7 6 9 13 13 15 16 10 4 3 5 7 9 8 8 4 3 6 5 2 3 5 7 7 6 6 6 4 3 3 6 8
8 5 5 7 11 10 7 5 3 2 6 6 3 3 5 3 4 9 9 6 7 7 4 3 4 4 2 1 1 2 6 5 2 2 3 2 2 2 6 15 21 20 18 19 18 11 5 6 11 12 14 15 12 8 9 11 10 8 11 15 13 11 11 9 5 6 8 6 4 7 8 6 9 10 7 5 5 7 7 7 8 8 7 6 6 8 11 11
4 4 5 5 4 4 6 6 5 3 4 7 4 3 7 5 2 5 6 4 8 9 3 3 5 5 3 3 1 1 5 5 4 3 3 3 3 4 8 12 17 19 15 14 16 10 4 7 12 13 15 12 7 7 12 15 16 16 16 16 14 12 9 8 9 10 8 3 5 11 10 12 18 16 9 7 8 8 6 8 11 11 9 9 10 13 14 13
2 4 8 9 4 3 5 4 4 5 3 5 5 4 6 7 4 5 5 4 7 9 4 2 6 7 7 7 4 1 4 4 4 4 3 3 3 2 5 8 12 18 14 9 12 7 3 8 12 13 13 8 8 10 14 15 15 17 19 20 21 20 17 15 15 16 13 9 12 18 18 21 24 15 9 9 10 9 10 12 14 12 11 11 13 16 16 14
4 5 9 10 3 3 7 7 6 6 5 4 4 4 6 8 8 6 4 3 4 7 7 4 6 9 9 9 6 3 4 4 3 5 5 4 4 3 3 4 6 13 12 7 6 3 2 7 10 10 11 8 9 12 14 15 14 13 17 20 20 21 22 21 20 21 19 16 19 24 23 25 21 9 7 11 15 17 15 14 15 14 14 14 15 18 17 16
5 6 5 6 1 2 7 7 6 5 5 4 4 5 6 8 9 7 5 7 6 6 9 9 9 12 11 10 9 8 10 6 3 3 5 5 4 4 6 5 2 8 11 7 4 2 2 5 8 9 8 7 8 12 13 15 15 15 17 18 18 19 19 19 19 19 18 19 24 22 18 21 14 5 4 9 14 16 13 14 17 16 15 16 17 18 18 18
5 6 4 3 0 2 4 4 3 3 4 5 5 5 6 8 9 6 5 10 9 7 10 14 12 10 11 12 12 13 14 12 7 4 5 8 7 3 3 3 1 6 9 8 6 5 3 4 6 7 6 6 8 12 15 14 13 14 16 18 19 19 18 19 22 21 18 19 20 15 14 17 8 6 6 9 9 9 11 15 17 16 16 18 19 19 20 22
4 5 4 3 2 2 2 2 3 3 3 4 5 6 6 5 5 5 4 8 13 14 15 15 11 7 7 11 17 21 21 20 19 15 10 10 10 8 8 7 4 4 8 8 7 7 6 6 6 7 8 8 7 11 14 12 9 10 15 21 24 24 23 23 22 22 20 17 14 13 17 16 5 7 11 11 9 9 11 15 17 17 19 22 22 23 24 26
Wind_Direction
230 233 236 236 233 229 225 225 224 223 223 223 224 227 229 227 224 225 224 220 222 225 227 231 236 229 218 221 220 213 213 213 217 217 214 213 209 208 207 192 180 182 195 200 196 189 186 193 200 197 189 180 202 195 151 134 151 293 311 208 250 236 265 348 30 21 101 103 82 78 39 356 102 137 174 218 216 211 203 178 187 182 183 183 137 160 176 167
229 231 233 235 237 234 228 225 224 224 223 222 222 225 229 228 224 223 224 219 216 222 229 230 235 236 221 217 216 211 213 213 218 222 219 213 206 206 204 199 193 187 198 206 201 202 198 195 197 198 196 189 197 181 161 144 124 128 275 235 251 213 332 22 54 37 47 58 66 80 66 15 50 104 153 244 222 201 196 195 191 174 184 193 151 162 185 177
227 228 230 232 235 236 234 229 224 224 224 223 221 222 226 228 226 222 221 219 214 217 226 230 231 235 225 216 213 210 208 213 227 226 219 211 208 206 202 205 205 194 201 207 194 197 198 192 190 190 191 195 209 197 180 157 142 224 270 263 253 134 100 77 78 61 51 53 58 66 62 56 54 41 138 274 268 215 209 206 193 182 184 188 165 173 191 185
224 225 226 228 231 234 235 234 229 224 223 224 223 220 223 227 227 224 221 218 215 213 220 227 228 231 230 219 214 208 197 219 240 226 214 211 209 206 204 207 205 194 196 197 187 196 197 189 191 186 182 174 182 192 191 178 169 184 255 283 222 149 129 98 93 77 71 66 54 28 339 27 38 337 271 269 287 245 233 210 184 191 189 186 174 183 196 192
222 223 223 224 227 230 233 235 232 227 223 224 225 221 220 225 227 226 223 219 216 212 214 223 226 229 231 218 215 204 178 208 251 226 214 208 206 203 203 202 198 190 184 186 188 203 201 191 188 183 184 163 156 177 186 184 180 151 216 279 295 179 147 118 102 83 85 72 50 27 6 350 345 298 260 241 251 257 340 50 80 157 186 191 185 189 199 196
223 222 222 222 223 226 229 233 233 228 224 223 225 224 220 222 225 226 226 221 218 213 212 218 222 227 230 220 215 197 179 187 338 231 214 208 204 202 201 198 195 184 178 192 201 206 196 185 187 187 190 178 169 175 169 175 181 180 217 262 308 339 83 121 98 78 68 53 54 37 9 328 312 290 260 233 237 252 310 310 289 326 197 196 190 192 202 200
228 224 222 221 221 224 226 230 232 230 226 222 223 226 222 220 221 225 227 222 219 216 212 215 220 227 231 226 215 196 198 213 20 265 209 206 204 201 202 198 195 183 177 195 207 204 190 183 191 194 197 191 180 176 150 162 178 186 180 193 240 321 93 114 79 72 33 18 28 348 326 295 285 286 277 250 248 251 276 284 275 286 213 191 190 195 209 209
231 229 225 223 220 221 223 226 230 230 227 221 220 225 224 220 219 222 225 222 218 216 215 214 217 224 229 228 211 195 210 214 206 3 207 205 203 200 201 196 197 188 179 195 207 202 190 189 193 192 201 197 185 178 151 146 178 196 178 174 184 217 189 140 215 293 305 295 304 302 292 287 282 283 285 272 267 261 261 264 265 267 197 190 198 198 206 210
230 231 229 226 222 220 220 223 226 228 228 221 218 222 224 220 219 220 222 221 216 214 216 213 213 219 225 225 208 199 219 209 196 290 225 204 200 197 199 193 193 186 184 200 206 202 197 194 195 196 200 191 196 176 160 154 196 198 189 169 172 190 213 231 260 268 282 283 291 285 281 283 277 286 287 273 271 259 245 244 254 252 198 191 198 198 203 207
229 230 230 229 225 221 219 221 223 226 227 222 217 220 222 220 219 220 221 222 219 214 214 213 214 215 219 219 202 207 228 209 192 214 223 206 198 195 196 193 191 184 188 203 205 205 203 197 197 199 197 197 246 152 166 182 176 182 185 150 177 215 240 254 266 266 280 288 276 266 278 282 271 263 267 274 281 225 217 227 242 230 198 195 197 199 202 204
228 228 229 230 228 224 219 219 221 222 224 221 216 217 221 220 219 219 219 222 222 218 216 217 215 215 219 214 201 211 228 211 197 204 211 206 198 195 195 194 193 185 188 198 205 209 206 207 194 181 177 202 206 144 164 185 142 165 176 150 237 264 275 265 263 261 268 275 257 273 291 283 273 243 234 252 249 215 212 217 230 214 196 198 199 201 202 202
228 227 227 229 228 226 221 219 219 220 221 218 214 215 220 220 219 219 218 220 223 222 223 223 217 217 214 209 210 217 217 205 200 198 202 204 200 200 199 195 192 189 188 189 198 209 208 217 198 176 176 181 171 147 177 184 148 151 171 187 244 249 272 266 262 265 263 242 196 4 313 277 258 239 246 251 241 229 228 217 217 210 197 200 200 202 204 202
228 227 226 227 227 227 223 219 218 219 218 216 212 213 219 220 219 220 218 217 221 224 226 226 223 216 204 205 218 215 197 193 199 198 196 197 199 201 199 196 192 191 191 186 191 210 213 221 207 180 166 159 145 120 170 178 166 156 176 215 229 216 253 247 248 259 257 237 221 35 299 261 259 270 260 245 228 217 219 213 211 208 200 202 201 204 207 205
228 228 226 226 225 225 225 220 218 218 217 215 212 212 217 219 219 221 218 215 218 222 223 225 225 211 199 210 221 210 191 180 191 200 196 191 197 197 193 192 193 192 190 183 184 208 215 218 211 186 160 172 157 115 133 161 171 166 162 204 224 227 242 216 219 231 232 216 185 172 257 254 268 315 313 206 200 198 211 210 209 209 204 203 202 205 210 210
228 229 228 227 225 223 223 221 218 217 216 215 212 212 214 217 218 219 217 215 216 219 217 218 220 208 198 216 220 209 197 179 182 198 198 192 192 192 189 186 190 189 184 180 187 211 211 200 199 191 158 161 162 141 134 155 181 187 170 176 205 218 248 224 201 197 201 196 177 183 249 259 248 249 131 146 176 187 216 223 216 211 207 206 205 207 211 213
227 229 229 227 226 223 222 221 218 216 216 215 212 212 213 215 217 217 217 214 213 216 213 211 213 208 201 220 215 205 192 180 181 192 196 194 191 191 188 186 189 184 179 186 201 212 204 191 188 182 157 151 160 159 160 179 190 198 202 198 181 196 231 246 196 186 192 202 191 200 236 275 241 215 172 156 184 191 216 237 234 217 209 208 208 209 211 211
228 228 228 226 225 222 220 219 218 216 215 213 212 212 211 213 215 216 216 214 214 216 217 219 216 215 218 211 202 196 188 179 178 186 191 189 188 187 182 182 185 181 180 191 200 199 193 191 189 178 173 173 178 169 172 197 197 178 193 235 203 189 204 198 69 208 196 205 213 214 235 250 263 238 205 194 211 215 215 225 245 231 212 209 211 212 212 212
228 227 227 225 223 220 217 216 216 215 214 212 211 210 209 210 214 215 212 211 211 213 220 223 219 222 227 211 194 194 195 182 175 185 187 182 182 180 175 176 176 174 174 175 184 186 181 183 184 182 191 195 195 188 191 190 175 168 171 206 229 197 200 195 153 164 177 200 229 222 234 239 243 250 250 253 246 233 228 224 232 240 222 209 212 217 217 216
227 226 227 226 222 217 214 215 215 213 211 210 210 208 208 208 211 212 208 204 200 196 207 210 209 225 329 210 201 198 198 187 178 185 183 178 178 177 175 174 170 167 163 159 176 180 172 166 183 199 199 195 198 196 197 165 160 182 178 187 223 214 211 201 159 163 178 197 231 231 243 246 236 233 247 259 254 239 237 234 225 229 231 219 214 219 222 221
226 226 227 225 221 216 214 215 214 210 206 207 207 203 201 199 201 202 196 196 197 193 189 195 204 222 10 175 190 190 191 188 185 185 183 179 175 176 178 172 168 167 165 164 175 176 173 171 200 206 197 186 192 196 199 181 175 194 187 199 226 236 230 205 158 158 174 193 236 231 247 258 250 240 236 250 257 248 236 231 225 222 222 222 220 221 226 228
226 226 226 223 218 215 214 213 211 206 203 205 202 197 196 193 188 179 180 190 202 198 194 187 197 210 226 133 166 173 179 186 190 186 183 181 175 175 180 174 169 176 176 166 158 167 178 198 209 203 191 180 188 196 198 205 217 211 179 211 227 240 247 205 131 142 162 177 245 241 254 259 253 250 239 238 246 252 241 227 223 222 218 218 220 223 229 233
226 225 222 218 214 211 211 209 207 204 201 203 200 197 200 197 194 189 179 183 203 198 196 182 179 198 208 182 166 170 174 182 192 189 183 179 178 176 179 180 178 179 174 164 154 162 188 215 206 188 186 185 187 197 198 205 219 216 187 217 228 230 248 171 127 146 158 168 243 251 256 258 259 254 242 235 231 240 243 232 223 224 221 218 217 220 226 230
223 220 216 213 209 207 206 205 204 201 199 200 199 199 202 198 196 194 180 170 192 197 201 197 182 188 195 196 192 190 193 187 187 190 184 179 180 177 175 179 182 175 171 169 166 173 198 215 192 177 187 191 189 198 200 203 213 215 197 215 236 221 230 199 137 153 160 186 259 271 269 265 265 258 247 236 231 233 237 235 233 230 225 223 222 221 221 222
218 215 212 209 205 203 202 201 201 200 197 197 200 200 198 196 194 183 165 131 161 192 202 207 203 197 190 193 209 224 255 209 188 186 185 180 176 175 177 177 175 174 176 176 174 185 203 193 177 178 186 191 195 198 196 200 208 211 205 215 236 220 220 209 140 152 183 220 246 270 285 271 244 242 244 234 229 232 234 233 236 234 228 226 226 223 221 221
214 210 206 201 199 200 198 198 198 197 196 197 198 197 193 191 189 177 157 98 61 167 198 207 212 215 203 198 222 237 284 259 199 185 185 182 173 170 179 180 177 176 177 177 178 194 204 165 172 183 184 188 198 197 193 195 195 206 211 221 236 229 231 212 146 136 266 260 218 204 268 277 236 233 241 230 217 225 231 229 231 234 229 224 224 222 220 219
204 199 197 194 195 196 193 194 194 190 190 194 195 194 192 189 184 175 158 86 288 156 176 188 196 219 210 208 229 238 278 286 215 190 186 185 178 172 173 179 184 182 173 174 181 197 190 165 173 184 182 186 197 199 194 189 186 200 190 205 238 246 253 260 147 144 244 286 199 170 234 282 303 272 260 265 242 225 225 221 224 231 229 222 221 221 220 217
194 189 189 190 191 189 187 188 189 185 184 189 192 191 186 180 178 172 159 291 235 153 146 169 180 200 203 208 214 213 266 249 208 194 188 186 183 178 177 176 181 182 166 165 192 183 165 172 177 181 180 185 195 199 193 183 182 194 168 182 219 242 254 269 279 231 238 348 296 203 211 272 282 265 248 256 264 253 235 221 218 223 226 225 222 221 222 220
186 184 183 184 185 184 183 183 182 183 185 186 186 187 183 173 170 166 167 236 175 135 137 164 180 184 188 201 201 200 230 206 180 190 189 188 186 182 185 182 175 175 167 170 192 176 165 176 178 176 180 188 191 188 178 175 174 174 162 169 195 222 236 248 265 262 48 26 272 211 179 256 269 245 212 230 242 244 238 231 220 216 220 223 222 221 223 225
178 178 178 177 176 178 182 180 177 181 187 182 175 178 181 174 164 155 187 217 140 114 147 159 171 173 159 168 187 200 227 234 217 182 185 189 190 189 194 187 179 167 174 187 191 166 171 181 177 173 180 186 180 167 163 174 176 156 142 117 122 173 205 15 313 79 59 311 249 208 179 247 274 250 209 226 230 230 231 230 232 225 217 215 216 221 225 228
172 173 170 168 166 166 171 172 175 182 183 178 171 164 163 163 159 159 198 192 109 121 150 156 163 160 147 142 174 191 213 241 238 177 181 189 192 196 188 183 181 159 174 191 178 149 170 174 172 175 185 177 159 146 163 176 161 138 126 99 89 64 47 41 42 75 56 264 234 192 198 239 277 236 187 203 211 210 219 223 233 236 223 213 214 220 225 228
167 165 159 161 161 157 162 162 166 176 175 173 171 160 148 145 161 196 184 152 59 145 150 154 160 157 158 160 168 178 203 234 212 173 183 187 185 195 173 171 179 149 170 172 135 182 166 158 163 184 185 169 148 140 175 183 160 143 137 122 109 40 36 34 38 90 217 250 218 188 199 210 239 241 206 236 230 201 203 214 224 232 231 224 220 223 226 228
158 156 152 155 155 152 160 161 159 164 167 165 161 153 142 129 227 192 169 43 132 164 157 153 164 164 163 169 173 177 195 222 197 181 191 182 178 194 177 172 169 156 172 158 137 171 169 161 159 165 187 172 152 140 174 187 169 163 161 146 153 170 115 175 186 184 230 237 320 197 183 215 239 251 257 264 273 251 214 210 217 226 236 238 233 231 230 229
151 152 150 148 150 153 157 158 159 159 159 157 152 147 145 184 195 171 166 204 150 152 156 151 164 166 157 165 179 181 190 213 198 184 189 187 185 195 194 185 172 167 171 158 152 160 168 181 170 157 194 181 162 154 169 183 181 182 175 165 175 169 165 201 188 221 247 228 225 162 89 272 266 261 240 240 249 248 240 236 236 239 245 250 257 254 237 228
151 153 149 140 142 154 155 153 157 156 151 150 146 141 160 177 177 108 140 219 66 124 158 152 159 165 164 171 175 175 188 220 211 185 184 191 189 193 202 192 179 169 140 156 166 170 169 184 177 167 167 173 177 181 174 164 174 187 176 164 181 170 175 195 177 211 228 174 218 181 133 241 232 302 259 238 240 242 242 243 242 245 247 250 257 260 252 237
151 152 147 139 137 150 155 153 154 155 151 147 138 136 171 169 175 126 143 216 183 140 150 154 157 159 172 180 174 177 180 208 218 198 186 192 193 191 194 190 184 166 137 162 174 169 175 188 170 165 157 168 179 185 163 142 158 189 158 159 200 197 168 177 174 199 188 113 211 196 227 268 252 297 288 271 268 252 244 244 239 239 241 244 249 250 252 250
151 150 144 139 140 149 156 154 155 157 154 146 131 166 182 159 124 165 145 146 178 157 144 156 164 158 170 176 175 187 178 176 216 210 191 192 197 196 193 189 184 175 163 165 155 168 182 179 164 162 166 178 182 174 163 160 159 163 170 176 194 90 116 149 252 96 123 230 223 182 245 288 295 290 275 248 253 247 235 241 238 237 240 243 246 248 251 253
144 146 141 136 142 152 157 155 156 159 156 146 148 169 180 167 119 125 124 131 153 167 151 158 172 155 162 161 166 184 176 163 210 210 195 192 197 197 196 195 186 185 182 174 172 182 166 126 169 176 177 187 183 169 169 174 157 148 185 176 120 45 56 124 232 157 163 244 239 184 219 228 206 264 265 233 243 239 217 222 231 237 238 240 245 249 255 256
135 135 131 134 146 155 159 159 158 157 154 152 181 174 158 170 155 127 142 142 127 146 158 154 165 156 161 162 163 174 171 175 199 197 185 189 196 190 189 193 185 190 199 190 177 159 147 110 358 251 178 149 134 145 167 200 167 152 170 164 145 198 204 170 201 209 195 234 260 210 217 214 200 225 295 246 233 227 216 210 217 231 233 239 247 252 255 252
129 127 122 139 152 155 163 165 160 154 146 169 193 193 153 145 148 130 130 131 111 145 170 125 79 39 168 164 155 162 171 179 184 186 187 186 190 185 186 192 186 188 200 199 178 151 156 142 95 275 254 125 107 148 182 194 355 102 151 177 195 227 195 181 194 184 179 225 256 237 223 229 211 193 203 235 228 212 209 198 197 222 232 239 240 231 227 230
126 118 120 154 156 153 155 160 161 156 158 189 188 186 137 131 136 123 113 106 67 37 134 109 78 113 139 154 149 157 173 178 177 185 199 187 178 182 188 192 186 184 194 201 185 155 152 148 137 160 295 185 169 199 188 177 169 163 175 190 199 197 117 172 200 190 164 204 245 257 250 253 238 183 197 222 230 218 208 192 192 215 222 221 201 187 205 244
128 106 139 162 161 156 150 150 165 181 209 195 177 110 105 123 134 130 104 96 77 34 49 85 133 134 110 135 146 152 161 169 178 182 198 192 187 190 195 193 184 178 189 200 186 164 155 147 141 140 216 191 179 198 202 182 176 179 187 187 187 184 145 157 206 209 198 214 232 261 267 263 250 196 194 208 220 211 189 183 195 199 189 177 170 181 323 309
129 100 154 163 163 160 153 149 182 185 197 216 181 110 122 128 132 144 119 97 93 44 35 51 86 126 117 104 106 132 147 157 179 180 190 207 205 214 199 193 187 179 183 194 187 169 126 110 135 136 167 178 160 199 316 213 182 184 200 191 184 183 174 188 209 198 183 222 246 294 280 273 238 171 172 177 170 145 148 179 201 169 146 146 153 289 302 297
106 102 144 162 164 159 154 160 188 182 205 204 156 101 125 130 112 141 145 121 119 94 62 58 7 69 125 113 96 126 155 159 176 188 200 217 218 236 203 192 188 183 184 188 185 167 101 108 137 104 73 35 40 46 352 354 170 182 217 198 185 192 195 194 196 164 169 203 196 202 258 265 272 352 112 121 126 131 152 190 188 140 136 158 188 259 276 281
105 109 134 161 168 165 163 175 175 182 195 175 148 109 129 137 135 147 152 153 146 123 130 151 38 17 77 131 149 158 180 180 177 200 211 234 220 226 216 199 192 188 191 183 177 182 171 148 139 124 136 111 79 143 259 316 211 194 202 199 191 192 190 182 154 141 193 204 186 199 239 241 270 341 24 90 126 156 188 202 195 181 176 190 228 237 218 172
111 107 124 156 170 179 206 316 137 169 176 167 158 146 142 140 163 168 164 161 160 140 139 161 139 104 71 12 159 162 182 189 168 204 211 311 287 235 238 217 204 199 192 181 180 182 175 171 164 161 173 176 178 187 185 190 197 188 189 195 197 191 186 189 191 174 212 209 185 204 237 238 308 329 327 288 204 203 209 197 194 207 202 202 223 194 167 146
119 111 122 152 171 196 245 294 318 217 183 172 156 173 187 184 173 176 169 156 160 155 142 146 142 115 86 27 25 166 192 188 106 136 195 244 268 289 268 235 220 210 189 180 187 178 140 191 193 185 190 189 189 182 145 144 158 169 180 189 197 198 188 191 201 204 219 217 194 232 252 274 281 270 261 257 232 221 221 198 192 205 203 201 200 177 162 154
126 141 152 152 153 212 251 268 279 266 184 168 165 178 189 188 151 169 183 176 163 160 143 127 148 147 150 160 138 222 201 172 122 135 179 214 237 308 294 259 232 211 186 181 194 179 127 196 198 201 206 193 163 140 138 150 167 176 176 178 187 190 181 191 212 219 225 234 249 249 250 260 260 244 213 216 227 225 223 201 201 212 211 200 188 176 170 167
93 128 159 165 154 191 217 225 235 252 239 182 171 148 171 189 171 155 183 200 168 161 152 153 174 172 164 163 161 214 191 166 164 175 171 196 213 298 296 267 228 202 187 194 201 183 151 194 191 198 202 173 127 141 158 168 177 178 176 179 185 184 182 194 210 215 211 207 229 235 229 237 246 236 195 198 207 213 219 206 203 210 204 192 185 182 183 184
64 83 148 168 165 155 164 159 174 212 247 227 189 156 163 187 194 180 159 150 174 182 176 178 189 185 183 175 165 189 194 172 188 195 174 175 190 190 214 247 216 186 180 201 220 214 218 191 175 181 194 182 147 147 163 176 176 178 185 187 186 187 190 196 205 214 213 212 227 231 231 238 242 220 192 209 206 209 213 195 187 192 190 189 191 194 198 199
44 37 126 168 299 121 158 165 170 192 221 226 219 201 185 189 194 192 169 161 177 185 186 200 197 183 186 184 176 201 212 202 234 226 169 165 190 204 205 220 204 166 171 186 208 233 244 188 160 162 185 198 165 154 168 178 176 180 189 191 188 190 197 204 212 217 214 220 231 235 243 254 246 174 178 225 207 199 192 178 181 184 186 195 201 207 217 219
64 41 75 134 239 142 157 167 170 193 209 207 209 200 204 209 195 183 186 192 193 182 186 203 201 181 185 191 194 211 209 204 231 241 164 173 200 225 220 221 194 174 177 175 177 191 204 188 164 155 176 206 185 169 171 174 179 188 191 190 189 189 195 205 213 214 208 216 228 233 246 253 234 147 201 234 209 187 174 177 185 185 193 210 217 224 236 234
87 64 66 77 88 129 143 146 166 205 227 218 218 209 212 214 176 165 194 204 208 211 205 202 198 186 184 192 207 218 212 205 218 228 220 214 229 260 284 297 305 221 196 181 178 181 171 171 170 162 182 203 192 174 169 163 174 201 200 192 188 192 199 204 212 216 211 210 215 220 232 236 189 153 210 221 212 209 199 193 197 203 214 228 233 235 240 240
Height
1438 1441 1443 1446 1449 1452 1455 1457 1460 1462 1465 1468 1471 1473 1475 1479 1481 1484 1486 1488 1492 1494 1497 1500 1502 1505 1506 1508 1510 1511 1513 1513 1514 1514 1513 1515 1520 1522 1524 1525 1527 1530 1534 1536 1538 1539 1541 1543 1543 1544 1545 1547 1549 1549 1550 1551 1552 1555 1556 1558 1559 1555 1553 1551 1549 1549 1550 1550 1550 1550 1551 1550 1551 1552 1553 1553 1554 1555 1556 1557 1557 1559 1559 1559 1560 1560 1560 1561
1436 1438 1441 1443 1446 1449 1452 1455 1458 1460 1463 1466 1469 1471 1473 1476 1479 1482 1485 1487 1489 1492 1495 1498 1501 1503 1506 1508 1509 1511 1512 1512 1513 1511 1511 1515 1519 1520 1523 1524 1526 1529 1533 1535 1537 1538 1540 1542 1542 1543 1545 1546 1548 1548 1550 1551 1552 1557 1557 1558 1557 1552 1551 1550 1550 1550 1549 1550 1549 1550 1551 1551 1552 1552 1553 1554 1554 1554 1555 1556 1557 1558 1559 1560 1561 1560 1560 1561
1433 1436 1438 1441 1443 1446 1449 1452 1455 1458 1461 1463 1466 1469 1471 1474 1477 1480 1483 1486 1488 1490 1493 1497 1500 1503 1506 1507 1509 1511 1511 1513 1511 1506 1509 1514 1516 1518 1522 1523 1525 1528 1532 1534 1536 1538 1540 1541 1542 1543 1545 1546 1547 1549 1550 1550 1552 1557 1558 1558 1555 1550 1551 1550 1550 1550 1550 1550 1549 1550 1551 1551 1552 1553 1553 1554 1553 1553 1553 1554 1555 1557 1557 1558 1560 1560 1560 1561
1430 1433 1436 1439 1441 1444 1446 1449 1453 1456 1459 1461 1464 1467 1469 1472 1475 1478 1482 1485 1486 1489 1491 1495 1498 1501 1504 1506 1509 1509 1510 1513 1505 1501 1508 1512 1514 1517 1520 1522 1524 1527 1531 1534 1536 1538 1540 1541 1542 1543 1544 1545 1546 1548 1549 1550 1552 1556 1557 1557 1553 1549 1550 1551 1550 1551 1550 1550 1550 1551 1551 1551 1552 1553 1553 1553 1554 1553 1551 1552 1552 1553 1554 1556 1558 1558 1559 1560
1427 1430 1433 1436 1439 1441 1444 1447 1450 1454 1457 1459 1462 1465 1468 1470 1473 1476 1480 1483 1485 1487 1489 1493 1496 1500 1503 1505 1508 1507 1512 1514 1501 1498 1507 1509 1512 1516 1518 1521 1523 1526 1530 1533 1535 1537 1539 1540 1542 1543 1543 1544 1546 1547 1548 1549 1551 1554 1555 1554 1552 1549 1550 1551 1551 1551 1550 1550 1550 1551 1551 1552 1552 1552 1553 1553 1554 1552 1551 1551 1551 1552 1552 1553 1555 1557 1557 1559
1424 1427 1430 1433 1436 1439 1442 1444 1447 1451 1454 1457 1460 1463 1466 1468 1471 1475 1478 1481 1484 1486 1488 1491 1495 1498 1501 1504 1506 1506 1508 1507 1497 1497 1503 1506 1511 1514 1516 1519 1521 1524 1528 1532 1534 1536 1538 1539 1541 1541 1542 1543 1544 1545 1545 1547 1549 1551 1553 1552 1552 1550 1550 1551 1551 1551 1551 1550 1550 1551 1552 1552 1552 1552 1551 1551 1551 1551 1550 1550 1551 1552 1552 1552 1554 1555 1556 1557
1420 1424 1427 1430 1433 1437 1439 1442 1445 1448 1452 1455 1459 1461 1464 1467 1469 1473 1476 1480 1482 1485 1487 1489 1493 1497 1500 1502 1503 1504 1502 1497 1495 1497 1500 1504 1509 1512 1515 1518 1520 1523 1526 1531 1533 1534 1536 1537 1539 1540 1541 1541 1542 1543 1544 1545 1547 1549 1550 1551 1552 1551 1551 1551 1551 1551 1551 1551 1551 1552 1552 1552 1551 1551 1550 1550 1550 1550 1550 1549 1550 1551 1551 1552 1553 1554 1555 1556
1416 1420 1423 1427 1431 1434 1437 1440 1442 1445 1449 1453 1457 1459 1462 1465 1468 1471 1474 1478 1480 1483 1486 1488 1492 1495 1499 1500 1499 1500 1496 1493 1497 1498 1499 1503 1507 1510 1514 1516 1518 1521 1525 1530 1532 1533 1535 1536 1538 1539 1540 1540 1540 1542 1543 1545 1548 1548 1548 1549 1551 1552 1552 1552 1551 1552 1551 1551 1552 1551 1551 1551 1550 1549 1548 1548 1548 1548 1549 1548 1549 1550 1551 1551 1552 1553 1554 1555
1413 1416 1420 1424 1427 1431 1434 1437 1440 1443 1446 1450 1454 1457 1460 1463 1466 1469 1472 1476 1479 1481 1484 1487 1490 1493 1498 1498 1498 1496 1488 1490 1499 1499 1500 1503 1505 1508 1511 1514 1516 1519 1525 1530 1532 1533 1533 1534 1536 1537 1538 1538 1538 1540 1542 1545 1547 1546 1546 1548 1549 1551 1552 1552 1551 1551 1551 1551 1551 1551 1550 1549 1549 1549 1547 1546 1545 1546 1547 1547 1547 1549 1550 1550 1551 1551 1553 1554
1410 1413 1416 1420 1424 1428 1431 1434 1437 1440 1444 1448 1452 1455 1459 1462 1464 1467 1470 1474 1478 1480 1483 1486 1488 1492 1495 1496 1498 1492 1483 1491 1499 1499 1501 1503 1505 1507 1509 1513 1515 1519 1525 1530 1531 1532 1532 1534 1536 1537 1538 1538 1538 1539 1540 1543 1544 1544 1546 1547 1548 1550 1550 1551 1551 1551 1551 1550 1550 1550 1549 1548 1548 1548 1547 1544 1544 1545 1546 1546 1546 1547 1549 1549 1550 1550 1551 1553
1407 1410 1413 1416 1420 1424 1428 1431 1435 1438 1441 1445 1449 1453 1457 1460 1463 1466 1468 1472 1476 1479 1481 1484 1486 1489 1492 1494 1494 1486 1482 1493 1497 1498 1502 1502 1504 1505 1507 1511 1514 1518 1523 1528 1530 1531 1533 1534 1535 1536 1537 1537 1538 1539 1540 1541 1542 1543 1546 1548 1548 1549 1549 1550 1550 1550 1550 1549 1549 1549 1548 1547 1547 1546 1545 1544 1544 1544 1545 1545 1545 1546 1547 1548 1549 1550 1550 1551
1403 1407 1410 1413 1416 1420 1425 1428 1432 1436 1439 1443 1447 1451 1455 1458 1461 1464 1467 1471 1474 1478 1480 1482 1484 1486 1489 1490 1487 1483 1486 1492 1494 1498 1501 1502 1505 1506 1506 1510 1513 1516 1520 1524 1528 1531 1534 1534 1534 1535 1536 1536 1537 1540 1540 1540 1542 1544 1546 1548 1548 1548 1549 1548 1548 1549 1549 1548 1548 1549 1550 1547 1544 1543 1541 1541 1541 1541 1543 1543 1544 1544 1545 1546 1547 1548 1548 1549
1400 1403 1406 1410 1413 1417 1421 1425 1429 1433 1437 1441 1444 1448 1452 1456 1460 1463 1465 1469 1472 1476 1479 1481 1482 1483 1486 1485 1481 1484 1489 1491 1493 1496 1499 1502 1506 1508 1509 1510 1512 1515 1518 1522 1526 1531 1534 1533 1534 1535 1535 1536 1536 1539 1538 1539 1542 1544 1545 1547 1548 1550 1549 1546 1547 1548 1547 1547 1546 1551 1556 1549 1540 1539 1536 1535 1538 1539 1541 1541 1542 1543 1543 1545 1545 1546 1546 1547
1396 1400 1403 1407 1410 1414 1418 1422 1426 1430 1434 1438 1442 1446 1450 1454 1458 1461 1464 1467 1471 1475 1478 1480 1482 1482 1482 1480 1478 1484 1488 1489 1491 1494 1497 1501 1504 1508 1511 1511 1512 1515 1518 1521 1525 1531 1533 1533 1534 1534 1535 1536 1536 1538 1538 1540 1542 1543 1546 1547 1549 1553 1550 1543 1544 1545 1546 1547 1545 1551 1557 1548 1540 1538 1536 1535 1537 1539 1540 1540 1541 1541 1542 1543 1543 1544 1544 1545
1393 1396 1399 1403 1407 1411 1414 1419 1423 1427 1432 1436 1440 1444 1448 1452 1456 1460 1463 1466 1470 1473 1477 1480 1481 1480 1480 1477 1477 1481 1486 1487 1488 1491 1495 1497 1501 1505 1509 1511 1512 1515 1518 1522 1525 1529 1531 1532 1533 1534 1535 1536 1536 1538 1540 1541 1541 1541 1548 1551 1549 1552 1549 1541 1540 1541 1543 1545 1544 1550 1554 1545 1539 1539 1537 1536 1537 1538 1539 1539 1540 1540 1541 1541 1541 1541 1542 1542
1389 1392 1396 1399 1403 1407 1411 1416 1420 1424 1429 1433 1438 1442 1446 1451 1455 1458 1461 1465 1469 1472 1475 1478 1478 1478 1478 1475 1475 1478 1482 1483 1485 1490 1493 1495 1498 1501 1506 1510 1512 1515 1519 1522 1525 1528 1530 1532 1533 1534 1534 1535 1535 1537 1541 1544 1544 1541 1545 1549 1547 1550 1550 1545 1541 1540 1541 1543 1543 1546 1547 1542 1537 1536 1536 1536 1537 1538 1538 1538 1538 1538 1539 1540 1540 1540 1540 1541
1386 1389 1392 1396 1400 1404 1408 1412 1417 1421 1426 1431 1436 1440 1445 1450 1454 1458 1461 1464 1467 1470 1473 1474 1476 1478 1475 1471 1471 1474 1477 1480 1484 1489 1491 1494 1497 1499 1504 1508 1511 1515 1519 1522 1524 1526 1529 1530 1532 1534 1534 1534 1533 1535 1544 1549 1548 1543 1543 1546 1544 1544 1548 1547 1544 1541 1541 1543 1544 1544 1543 1540 1537 1535 1535 1535 1535 1536 1536 1536 1536 1536 1537 1537 1538 1539 1539 1539
1381 1385 1388 1392 1396 1400 1405 1409 1414 1419 1424 1430 1435 1439 1443 1448 1453 1456 1458 1461 1464 1469 1472 1472 1476 1476 1469 1465 1466 1468 1473 1477 1482 1486 1490 1493 1497 1499 1502 1505 1508 1513 1517 1520 1522 1524 1528 1529 1531 1533 1534 1534 1531 1532 1541 1544 1542 1542 1544 1546 1544 1541 1543 1544 1543 1541 1541 1543 1544 1544 1543 1539 1536 1534 1533 1534 1534 1534 1534 1534 1534 1534 1535 1535 1536 1537 1537 1537
1377 1381 1384 1388 1393 1397 1401 1406 1411 1416 1422 1428 1433 1439 1444 1449 1453 1453 1454 1456 1458 1462 1464 1464 1468 1468 1462 1462 1464 1466 1471 1477 1480 1484 1488 1490 1496 1499 1501 1503 1505 1508 1513 1517 1520 1522 1525 1529 1532 1532 1531 1530 1528 1528 1533 1534 1533 1536 1538 1542 1543 1541 1540 1538 1538 1539 1540 1543 1544 1543 1541 1536 1533 1532 1531 1531 1532 1531 1531 1531 1532 1532 1533 1533 1534 1535 1535 1536
1373 1376 1380 1385 1389 1393 1398 1403 1408 1413 1420 1425 1430 1435 1439 1441 1444 1445 1447 1450 1450 1453 1455 1455 1460 1464 1462 1462 1465 1467 1471 1477 1479 1481 1485 1488 1492 1496 1498 1500 1502 1504 1507 1511 1517 1519 1522 1529 1530 1526 1524 1525 1526 1527 1529 1528 1529 1531 1533 1537 1538 1538 1536 1531 1532 1536 1537 1542 1543 1540 1539 1535 1531 1530 1529 1529 1529 1528 1528 1528 1528 1529 1529 1531 1531 1532 1532 1533
1369 1372 1376 1381 1385 1390 1394 1399 1405 1410 1416 1421 1424 1426 1425 1427 1430 1431 1438 1447 1449 1452 1455 1453 1456 1462 1464 1464 1464 1465 1470 1475 1476 1478 1482 1486 1488 1492 1495 1497 1500 1503 1503 1506 1513 1517 1522 1525 1521 1519 1520 1523 1525 1526 1527 1528 1528 1530 1534 1537 1538 1538 1534 1527 1530 1535 1536 1542 1542 1537 1537 1534 1529 1527 1525 1526 1526 1525 1524 1524 1524 1524 1525 1527 1527 1528 1529 1529
1365 1368 1372 1376 1381 1386 1391 1396 1402 1408 1413 1417 1418 1419 1418 1422 1426 1427 1432 1441 1446 1450 1454 1454 1456 1460 1463 1464 1464 1464 1467 1471 1473 1475 1478 1482 1485 1486 1491 1496 1498 1499 1500 1505 1512 1518 1522 1517 1512 1515 1519 1522 1525 1525 1527 1529 1529 1532 1534 1538 1540 1536 1531 1529 1531 1534 1536 1541 1541 1536 1536 1532 1526 1523 1522 1522 1522 1521 1520 1519 1520 1521 1522 1522 1523 1524 1525 1526
1361 1364 1368 1372 1376 1382 1387 1393 1400 1405 1409 1411 1412 1414 1417 1423 1429 1430 1431 1437 1442 1447 1450 1452 1454 1457 1461 1463 1463 1465 1466 1466 1467 1470 1473 1476 1479 1481 1486 1492 1494 1495 1499 1503 1509 1516 1516 1509 1507 1513 1517 1520 1524 1525 1527 1529 1530 1531 1534 1539 1539 1533 1532 1535 1536 1535 1536 1538 1538 1535 1535 1531 1524 1521 1518 1517 1516 1515 1516 1516 1516 1517 1518 1518 1519 1520 1521 1522
1358 1361 1364 1368 1374 1379 1384 1392 1399 1401 1402 1405 1409 1413 1418 1424 1428 1429 1431 1436 1441 1445 1447 1450 1453 1454 1457 1460 1461 1464 1465 1463 1462 1464 1469 1471 1474 1478 1482 1484 1488 1492 1495 1498 1503 1506 1505 1502 1505 1511 1514 1517 1522 1523 1525 1529 1531 1531 1532 1536 1536 1531 1530 1532 1535 1535 1535 1536 1535 1537 1539 1530 1521 1519 1514 1511 1511 1511 1511 1513 1513 1513 1514 1515 1516 1517 1517 1517
1356 1359 1363 1367 1372 1377 1385 1392 1394 1395 1399 1403 1407 1413 1418 1422 1425 1427 1429 1435 1440 1444 1447 1449 1452 1453 1454 1458 1459 1461 1464 1463 1459 1460 1465 1466 1467 1473 1478 1481 1483 1487 1490 1494 1499 1501 1500 1499 1502 1507 1510 1514 1518 1520 1521 1525 1530 1532 1531 1531 1531 1529 1527 1527 1532 1535 1540 1541 1535 1537 1545 1530 1512 1513 1511 1506 1508 1508 1507 1508 1509 1510 1510 1511 1512 1512 1513 1513
1355 1359 1361 1365 1370 1376 1385 1388 1387 1391 1397 1401 1404 1410 1415 1417 1423 1425 1427 1436 1439 1441 1444 1447 1450 1449 1450 1455 1457 1461 1465 1461 1458 1461 1463 1464 1465 1467 1473 1477 1478 1482 1485 1490 1495 1497 1497 1498 1499 1504 1507 1511 1515 1517 1516 1518 1527 1533 1528 1526 1528 1527 1526 1527 1530 1535 1543 1543 1534 1534 1545 1536 1517 1512 1509 1505 1505 1505 1504 1504 1505 1506 1507 1506 1506 1508 1509 1510
1354 1357 1360 1364 1369 1376 1381 1381 1385 1389 1392 1397 1402 1409 1413 1414 1420 1421 1428 1442 1438 1432 1440 1445 1445 1442 1443 1450 1454 1461 1466 1458 1456 1460 1461 1464 1465 1465 1470 1472 1474 1478 1480 1488 1496 1492 1491 1496 1498 1500 1505 1509 1512 1514 1512 1513 1524 1529 1522 1522 1527 1526 1528 1529 1530 1535 1538 1539 1536 1533 1538 1542 1529 1514 1506 1505 1505 1503 1501 1500 1500 1500 1501 1501 1502 1503 1504 1506
1353 1357 1360 1364 1369 1374 1376 1376 1382 1386 1389 1395 1400 1406 1411 1413 1418 1419 1430 1443 1430 1422 1433 1438 1440 1439 1440 1446 1452 1457 1459 1455 1454 1455 1457 1462 1464 1464 1467 1467 1468 1473 1474 1482 1491 1486 1484 1491 1493 1496 1502 1506 1507 1507 1508 1512 1522 1524 1518 1520 1524 1525 1527 1528 1530 1536 1538 1543 1545 1536 1535 1542 1530 1510 1503 1502 1502 1502 1498 1496 1495 1494 1495 1496 1497 1499 1500 1502
1354 1357 1359 1363 1369 1374 1376 1376 1379 1383 1389 1394 1397 1403 1408 1411 1417 1420 1429 1431 1417 1416 1426 1430 1436 1438 1439 1444 1451 1455 1456 1456 1454 1452 1456 1461 1462 1462 1463 1463 1464 1470 1473 1475 1481 1482 1482 1485 1487 1492 1499 1502 1503 1505 1507 1511 1518 1520 1519 1520 1523 1526 1527 1530 1534 1538 1544 1549 1547 1537 1535 1540 1527 1506 1503 1504 1501 1500 1495 1492 1491 1489 1489 1491 1492 1494 1495 1497
1353 1356 1359 1363 1368 1372 1375 1378 1380 1384 1388 1392 1397 1401 1404 1410 1415 1419 1424 1418 1409 1416 1422 1424 1430 1432 1435 1443 1449 1454 1456 1457 1455 1453 1455 1457 1459 1461 1460 1462 1464 1468 1474 1477 1481 1484 1482 1485 1489 1492 1495 1497 1501 1505 1507 1511 1515 1517 1520 1523 1528 1531 1531 1535 1537 1540 1550 1549 1539 1534 1532 1538 1533 1507 1498 1500 1495 1493 1491 1489 1488 1486 1486 1487 1488 1490 1491 1492
1353 1356 1360 1364 1368 1371 1373 1376 1380 1383 1386 1390 1394 1398 1402 1409 1413 1412 1412 1407 1406 1416 1418 1421 1426 1426 1429 1437 1445 1452 1455 1456 1455 1452 1453 1453 1457 1460 1459 1462 1466 1470 1477 1482 1487 1487 1484 1488 1491 1490 1492 1494 1500 1507 1509 1511 1513 1515 1520 1525 1533 1539 1541 1544 1545 1547 1554 1546 1533 1530 1528 1536 1535 1508 1491 1491 1486 1485 1487 1487 1486 1484 1484 1485 1485 1487 1487 1489
1354 1358 1362 1366 1369 1372 1373 1375 1378 1382 1384 1387 1391 1396 1402 1410 1411 1405 1404 1404 1406 1412 1413 1417 1422 1422 1426 1433 1439 1447 1452 1454 1452 1448 1450 1451 1453 1454 1452 1453 1459 1467 1475 1481 1488 1491 1488 1488 1487 1489 1492 1490 1496 1508 1514 1514 1514 1515 1519 1525 1535 1545 1549 1550 1552 1552 1550 1541 1530 1528 1529 1531 1521 1501 1491 1489 1484 1483 1484 1482 1483 1482 1482 1482 1483 1484 1484 1486
1355 1358 1362 1366 1368 1371 1373 1374 1378 1381 1384 1387 1391 1395 1399 1405 1405 1399 1404 1407 1403 1404 1407 1411 1416 1419 1423 1430 1435 1442 1448 1450 1447 1445 1447 1448 1451 1451 1447 1445 1446 1453 1463 1472 1482 1489 1492 1489 1486 1490 1494 1491 1492 1501 1511 1513 1511 1511 1514 1520 1529 1540 1548 1549 1550 1549 1543 1536 1528 1525 1530 1526 1508 1493 1488 1484 1481 1481 1480 1480 1481 1480 1481 1481 1481 1483 1483 1483
1355 1358 1362 1365 1368 1371 1372 1374 1377 1380 1384 1388 1391 1394 1398 1402 1399 1396 1404 1408 1403 1402 1404 1406 1413 1418 1420 1424 1429 1435 1444 1447 1443 1441 1444 1446 1449 1450 1447 1446 1444 1446 1456 1466 1473 1478 1484 1484 1481 1483 1487 1488 1488 1489 1493 1497 1503 1505 1503 1511 1519 1524 1534 1538 1539 1540 1536 1533 1531 1528 1528 1518 1501 1490 1482 1478 1478 1478 1478 1479 1479 1479 1480 1480 1480 1481 1481 1482
1356 1360 1362 1364 1368 1371 1372 1375 1377 1379 1383 1387 1391 1397 1397 1397 1399 1399 1402 1405 1403 1402 1404 1406 1411 1418 1422 1422 1424 1429 1437 1444 1442 1440 1441 1442 1445 1445 1444 1445 1444 1446 1455 1465 1470 1471 1476 1478 1475 1476 1477 1480 1485 1486 1486 1493 1504 1506 1501 1510 1517 1512 1515 1523 1525 1525 1524 1528 1531 1528 1519 1504 1492 1484 1478 1478 1478 1476 1477 1477 1476 1478 1477 1478 1479 1478 1478 1479
1358 1361 1363 1365 1368 1371 1373 1376 1378 1380 1382 1385 1392 1399 1395 1392 1397 1397 1397 1401 1401 1400 1404 1409 1411 1415 1421 1423 1425 1429 1435 1440 1440 1439 1438 1439 1442 1441 1439 1438 1438 1441 1445 1453 1461 1464 1471 1478 1476 1476 1477 1477 1481 1485 1486 1491 1500 1504 1505 1510 1510 1504 1506 1516 1521 1519 1520 1525 1523 1517 1512 1502 1495 1487 1476 1476 1476 1473 1476 1476 1474 1475 1475 1476 1476 1475 1476 1477
1359 1362 1364 1366 1369 1371 1373 1376 1378 1381 1384 1385 1391 1395 1392 1392 1395 1395 1394 1398 1400 1398 1400 1406 1408 1410 1415 1421 1426 1430 1434 1439 1439 1437 1436 1437 1438 1437 1437 1436 1435 1437 1436 1440 1450 1452 1461 1478 1481 1477 1478 1477 1478 1482 1484 1485 1489 1499 1506 1505 1503 1507 1508 1513 1522 1522 1525 1527 1515 1507 1508 1506 1504 1494 1475 1471 1474 1472 1473 1474 1473 1473 1473 1474 1473 1472 1474 1475
1359 1362 1366 1369 1370 1372 1375 1377 1379 1382 1385 1388 1390 1390 1389 1392 1394 1394 1395 1396 1398 1400 1400 1403 1407 1408 1410 1416 1423 1429 1434 1437 1437 1436 1436 1436 1435 1432 1434 1436 1435 1438 1436 1436 1446 1447 1453 1477 1487 1481 1480 1480 1479 1485 1490 1489 1487 1491 1497 1495 1499 1510 1513 1513 1518 1519 1523 1525 1512 1502 1502 1500 1498 1489 1475 1472 1473 1470 1470 1471 1471 1472 1471 1471 1471 1472 1474 1474
1360 1363 1368 1371 1372 1374 1376 1378 1381 1383 1386 1389 1390 1389 1388 1391 1393 1393 1395 1395 1396 1400 1402 1404 1407 1409 1409 1411 1417 1425 1430 1432 1434 1435 1434 1433 1433 1429 1429 1433 1434 1436 1436 1435 1442 1445 1447 1467 1485 1485 1481 1481 1483 1489 1494 1493 1490 1489 1493 1494 1494 1499 1504 1505 1506 1506 1512 1517 1511 1502 1498 1490 1481 1477 1474 1471 1468 1466 1467 1468 1469 1470 1469 1469 1470 1471 1472 1473
1361 1364 1370 1373 1374 1376 1378 1381 1384 1386 1387 1387 1387 1387 1387 1389 1392 1393 1394 1395 1398 1400 1402 1405 1408 1410 1412 1411 1415 1421 1425 1428 1430 1432 1431 1429 1430 1429 1426 1429 1431 1433 1437 1437 1438 1443 1446 1456 1476 1486 1484 1483 1485 1485 1483 1484 1487 1490 1494 1496 1495 1496 1498 1498 1498 1498 1503 1510 1509 1504 1499 1483 1467 1464 1466 1464 1462 1463 1464 1465 1467 1467 1467 1468 1469 1470 1471 1471
1362 1366 1372 1374 1375 1377 1379 1383 1385 1386 1387 1385 1385 1387 1388 1388 1391 1393 1394 1395 1398 1401 1401 1404 1408 1410 1412 1413 1414 1417 1422 1426 1427 1429 1431 1427 1425 1426 1422 1422 1426 1429 1435 1438 1437 1441 1445 1452 1470 1484 1484 1481 1480 1477 1475 1476 1479 1483 1486 1488 1490 1493 1497 1502 1505 1498 1496 1502 1502 1502 1499 1480 1460 1457 1458 1458 1460 1461 1462 1463 1465 1465 1466 1467 1468 1469 1469 1469
1363 1368 1372 1374 1376 1378 1380 1383 1385 1385 1387 1386 1385 1386 1388 1388 1390 1393 1395 1396 1399 1402 1403 1404 1407 1408 1410 1412 1413 1415 1419 1424 1425 1426 1428 1425 1421 1419 1417 1417 1421 1425 1430 1436 1436 1434 1438 1451 1468 1480 1481 1479 1478 1477 1477 1477 1475 1478 1482 1482 1485 1489 1492 1498 1502 1496 1495 1497 1495 1500 1500 1478 1456 1454 1456 1456 1458 1459 1460 1462 1463 1464 1466 1466 1467 1468 1468 1468
1363 1368 1373 1375 1377 1378 1381 1385 1386 1385 1386 1385 1384 1386 1387 1389 1391 1393 1395 1397 1400 1404 1405 1406 1406 1408 1409 1410 1414 1417 1417 1420 1423 1422 1423 1423 1419 1416 1416 1417 1419 1424 1427 1431 1434 1433 1437 1450 1467 1480 1483 1480 1479 1478 1477 1476 1477 1481 1482 1479 1481 1484 1483 1486 1489 1490 1495 1497 1496 1505 1503 1477 1457 1455 1456 1456 1457 1458 1460 1461 1462 1464 1465 1465 1467 1467 1467 1467
1365 1369 1374 1376 1379 1380 1381 1383 1384 1385 1386 1385 1386 1388 1388 1389 1391 1394 1396 1397 1399 1403 1406 1407 1406 1407 1408 1409 1412 1415 1416 1417 1421 1421 1421 1421 1419 1416 1417 1417 1417 1420 1422 1425 1427 1429 1434 1444 1459 1476 1485 1485 1486 1485 1483 1482 1479 1477 1477 1475 1475 1477 1480 1484 1485 1487 1493 1492 1492 1501 1496 1474 1460 1458 1456 1456 1457 1458 1459 1459 1461 1462 1463 1464 1465 1465 1466 1466
1366 1371 1376 1378 1379 1381 1381 1381 1382 1384 1385 1385 1388 1390 1390 1391 1392 1393 1395 1397 1399 1401 1404 1406 1407 1408 1410 1411 1412 1414 1414 1416 1419 1422 1422 1422 1420 1417 1416 1417 1417 1417 1418 1421 1422 1424 1431 1436 1439 1450 1462 1466 1468 1466 1464 1467 1468 1468 1470 1471 1472 1472 1476 1480 1484 1490 1492 1486 1485 1490 1483 1470 1462 1459 1458 1458 1458 1458 1458 1459 1460 1461 1462 1463 1463 1464 1464 1464
1365 1371 1377 1379 1381 1382 1382 1381 1382 1382 1382 1385 1389 1391 1391 1392 1392 1392 1394 1397 1399 1400 1402 1405 1408 1411 1414 1415 1416 1417 1416 1415 1418 1422 1424 1424 1421 1418 1417 1416 1417 1416 1417 1420 1423 1425 1431 1432 1428 1429 1433 1433 1437 1439 1439 1446 1458 1466 1468 1470 1472 1473 1474 1478 1484 1488 1484 1482 1486 1483 1475 1471 1466 1460 1461 1461 1459 1458 1457 1457 1459 1459 1460 1461 1461 1462 1462 1463
1366 1369 1373 1377 1381 1384 1383 1383 1383 1382 1381 1384 1389 1390 1391 1392 1392 1394 1395 1396 1398 1400 1402 1405 1407 1410 1415 1417 1419 1419 1417 1417 1419 1422 1424 1425 1422 1419 1418 1417 1417 1417 1418 1421 1424 1426 1429 1431 1428 1428 1427 1425 1429 1437 1439 1442 1451 1458 1462 1467 1471 1472 1476 1480 1482 1480 1478 1486 1490 1477 1471 1472 1461 1454 1459 1460 1458 1457 1456 1456 1457 1457 1458 1459 1459 1460 1460 1461
1366 1369 1371 1372 1376 1380 1382 1384 1385 1384 1382 1383 1385 1388 1392 1393 1393 1394 1395 1395 1397 1399 1403 1406 1406 1407 1410 1413 1416 1418 1418 1419 1420 1421 1422 1423 1423 1421 1419 1417 1416 1417 1419 1422 1423 1423 1425 1428 1426 1427 1429 1428 1430 1436 1439 1442 1446 1450 1455 1459 1461 1465 1471 1474 1475 1472 1472 1481 1479 1465 1464 1461 1446 1444 1454 1455 1454 1455 1454 1454 1455 1455 1457 1457 1457 1458 1458 1459
1367 1369 1371 1372 1373 1375 1379 1382 1384 1384 1384 1383 1384 1385 1389 1392 1392 1391 1393 1395 1398 1398 1401 1405 1406 1405 1406 1408 1412 1417 1417 1417 1418 1419 1419 1420 1422 1422 1420 1419 1416 1416 1418 1422 1422 1422 1423 1424 1424 1427 1431 1430 1430 1434 1437 1440 1446 1451 1454 1455 1456 1460 1462 1463 1465 1463 1464 1469 1462 1453 1455 1448 1435 1442 1451 1449 1450 1452 1450 1452 1453 1453 1455 1455 1456 1456 1456 1457
1369 1370 1372 1373 1374 1375 1377 1380 1382 1384 1384 1383 1384 1383 1384 1387 1389 1389 1389 1392 1396 1397 1398 1400 1401 1402 1404 1405 1408 1411 1411 1410 1412 1414 1415 1417 1420 1420 1419 1416 1415 1415 1418 1420 1422 1423 1424 1424 1423 1426 1432 1432 1431 1433 1436 1439 1443 1449 1452 1453 1455 1460 1462 1463 1462 1459 1462 1463 1453 1452 1458 1446 1433 1441 1448 1446 1447 1448 1447 1449 1450 1450 1453 1453 1453 1454 1454 1455
1370 1371 1372 1373 1375 1375 1377 1378 1380 1383 1383 1382 1382 1381 1381 1382 1384 1386 1387 1388 1390 1393 1393 1393 1395 1398 1401 1403 1404 1403 1403 1406 1409 1410 1411 1413 1414 1416 1415 1413 1413 1415 1415 1417 1419 1420 1423 1426 1423 1426 1434 1435 1431 1432 1436 1439 1443 1448 1451 1451 1454 1456 1458 1456 1451 1447 1452 1454 1454 1462 1461 1441 1431 1440 1445 1443 1445 1445 1445 1446 1447 1449 1451 1451 1451 1452 1452 1452
1372 1373 1373 1373 1374 1375 1376 1378 1380 1383 1382 1379 1379 1379 1379 1380 1381 1384 1387 1386 1386 1387 1388 1389 1392 1396 1400 1401 1398 1394 1396 1401 1404 1407 1409 1410 1411 1413 1414 1413 1413 1413 1413 1413 1414 1415 1419 1422 1424 1427 1432 1432 1431 1432 1435 1440 1449 1450 1442 1438 1440 1441 1441 1441 1440 1439 1442 1446 1452 1455 1441 1425 1429 1439 1440 1439 1442 1442 1443 1444 1446 1447 1448 1448 1448 1448 1448 1448